{"data":{"norad_id":62072,"epoch":"2026-09-21T14:20:45.241440Z","epoch_age_seconds":86568,"freshness":"FRESH","line1":"1 62072U 24217R   26264.59774585  .00012401  00000+0  37748-3 0  9992","line2":"2 62072  53.1629   0.5262 0001460  93.8026 266.3143 15.34405282103518","mean_motion":15.34405282,"eccentricity":0.000146,"inclination_deg":53.1629,"raan_deg":0.5262,"arg_perigee_deg":93.8026,"mean_anomaly_deg":266.3143,"bstar":0.00037748,"rev_number":10351,"period_min":93.84743502206,"perigee_km":461.68878065202,"apogee_km":463.686301418,"semimajor_km":6840.824541035,"source":"CELESTRAK","updated_at":"2026-09-22T09:00:49.494884Z"}}